This is the latest recevied weather packets stored in our database for station/object OE5RBO. If no packets are shown the sender has not sent any weather packets the latest 10 day(s).
| Time | Temp. | Humidity | Pressure | Rain* | Wind** | Luminosity | Snow |
|---|---|---|---|---|---|---|---|
| 1777865854 | 15.56° C | 75% | 1014.4 hPa | 0 mm | - | - | - |
| 1777865254 | 16.11° C | 75% | 1014.4 hPa | 0 mm | - | - | - |
| 1777864653 | 16.11° C | 74% | 1014.4 hPa | 0 mm | - | - | - |
| 1777864053 | 16.11° C | 73% | 1014.3 hPa | 0 mm | - | - | - |
| 1777861652 | 16.67° C | 70% | 1014 hPa | 0 mm | - | - | - |
| 1777861051 | 16.67° C | 69% | 1013.9 hPa | 0 mm | - | - | - |
| 1777859850 | 16.67° C | 69% | 1013.8 hPa | 0 mm | - | - | - |
| 1777859250 | 16.67° C | 68% | 1013.8 hPa | 0 mm | - | - | - |
| 1777858650 | 16.67° C | 68% | 1013.7 hPa | 0 mm | - | - | - |
| 1777858049 | 17.22° C | 67% | 1013.6 hPa | 0 mm | - | - | - |
| 1777857449 | 16.67° C | 67% | 1013.6 hPa | 0 mm | - | - | - |
| 1777856849 | 16.67° C | 68% | 1013.4 hPa | 0 mm | - | - | - |
| 1777856248 | 16.67° C | 68% | 1013.3 hPa | 0 mm | - | - | - |
| 1777855648 | 16.67° C | 68% | 1013.3 hPa | 0 mm | - | - | - |
| 1777855047 | 17.22° C | 67% | 1013.2 hPa | 0 mm | - | - | - |
| 1777854447 | 17.22° C | 67% | 1013.1 hPa | 0 mm | - | - | - |
| 1777853847 | 17.22° C | 67% | 1013.1 hPa | 0 mm | - | - | - |
| 1777852646 | 17.22° C | 66% | 1012.8 hPa | 0 mm | - | - | - |
| 1777852045 | 17.22° C | 67% | 1012.7 hPa | 0 mm | - | - | - |
| 1777851445 | 17.78° C | 66% | 1012.6 hPa | 0 mm | - | - | - |
| 1777850845 | 17.78° C | 64% | 1012.5 hPa | 0 mm | - | - | - |
| 1777849644 | 17.78° C | 66% | 1012.4 hPa | 0 mm | - | - | - |
| 1777849044 | 17.22° C | 66% | 1012.4 hPa | 0 mm | - | - | - |
| 1777847243 | 17.78° C | 66% | 1011.9 hPa | 0 mm | - | - | - |
| 1777846642 | 17.78° C | 66% | 1011.8 hPa | 0 mm | - | - | - |
* Rain since midnight (hover to see other rain measurements)
** Current wind speed in m/s (hover to see current wind gust speed)